Pagrindinis puslapis
METAR-TAF:

METAR-TAF

Oro uostai :

Regional_Airport

Clinton, Oklahoma, Jungtinės Amerikos Valstijos

platuma: 35-32-17N, ilguma: 098-55-17W, Aukštis: 492 m

Dabartinis oras

Ataskaita buvo paskelbta 9 minutes, ne 02:55 UTC
Vėjas 15 kt iš Pietų su gūsio iki 22 kt
Temperatūra 30°C
Drėgmė 49%
Slėgis 1009 hPa
Matomumas: 16.1 km
Giedras dangus

METAR: KCLK 250255Z AUTO 17015G22KT 10SM CLR 30/18 A2981 RMK AO2

Laikas: 22:04 (03:04 UTC)


TAF: trūkstamas

Orai ataskaitas ir orų prognozės (METAR, TAF).

turimą stotys yra geltonos ir raudonos taškus žemėlapyje.

Perkelti pele per norėdami pamatyti stoties vardą.

Tada spustelėkite, norėdami matyti oro stebėjimo ir prognozės.

Norėdami pakeisti žemėlapį: spustelėkite ant žalios mygtukų su juodo kryžiaus žemyn,; žalią mygtuką su brūkšneliu, jei norite nutolinti; arba žalių rodyklių gretimoms žemėlapius.


METAR-TAF: